{"data":{"norad_id":41860,"epoch":"2026-09-19T15:01:12.708192Z","epoch_age_seconds":93775,"freshness":"FRESH","line1":"1 41860U 16069B   26262.62584153  .00000024  00000+0  00000+0 0  9997","line2":"2 41860  55.5577  98.4663 0003871  42.1200 317.9843  1.70474171 61261","mean_motion":1.70474171,"eccentricity":0.0003871,"inclination_deg":55.5577,"raan_deg":98.4663,"arg_perigee_deg":42.12,"mean_anomaly_deg":317.9843,"bstar":0,"rev_number":6126,"period_min":844.70274385438,"perigee_km":23210.704986915,"apogee_km":23233.621539379,"semimajor_km":29600.300263147,"source":"CELESTRAK","updated_at":"2026-09-20T09:00:46.495040Z"}}